{"data":{"norad_id":55934,"epoch":"2026-05-25T03:26:59.116128Z","epoch_age_seconds":55937,"freshness":"FRESH","line1":"1 55934U 23037W   26145.14373977  .00000092  00000+0  15530-4 0  9998","line2":"2 55934  69.9998  91.6360 0003364 269.4342  90.6432 14.98335725175430","mean_motion":14.98335725,"eccentricity":0.0003364,"inclination_deg":69.9998,"raan_deg":91.636,"arg_perigee_deg":269.4342,"mean_anomaly_deg":90.6432,"bstar":1.553e-5,"rev_number":17543,"period_min":96.106631909881,"perigee_km":569.70014797767,"apogee_km":574.37622584342,"semimajor_km":6950.1751869105,"source":"CELESTRAK","updated_at":"2026-05-25T13:38:17.914372Z"}}